Location: Unnamed
(54.5186°N, 36.2255°E)
Time: 16:34:47
(UTC+03:00)

ISS - Pass Details

Date: 18 February 2026
Orbit: 416 x 427 km, 51.6° (Epoch: 5 March)

Event Time Altitude Azimuth Distance (km) Brightness Sun altitude
Exits shadow 06:54:23 - 242° (WSW) 1,670 -1.2 -8.7°
Reaches altitude 10° 06:54:50 10° 241° (WSW) 1,495 -1.4 -8.6°
Maximum altitude 06:58:02 44° 168° (SSE) 593 -2.8 -8.2°
Drops below altitude 10° 07:01:15 10° 95° (E) 1,495 0.8 -7.7°
Sets 07:03:23 0° 89° (E) 2,359 2.1 -7.4°
